Wind_Speed
25 24 22 22 20 21 21 21 20 21 22 22 24 25 24 23 24 23 22 21 36 29 29 26 27 27 26 23 20 17 14 16 19 19 16 16 15 15 15 15 16 16 16
28 28 25 24 22 22 20 21 21 23 23 24 25 25 24 24 23 26 23 23 37 32 34 32 30 29 26 22 20 19 17 18 19 19 17 18 17 17 16 16 17 18 16
31 31 30 28 25 23 21 21 22 25 25 25 26 26 26 23 24 24 25 30 42 39 40 34 33 29 26 23 21 21 20 19 19 19 18 19 17 17 18 18 19 19 19
35 35 35 32 29 27 23 21 21 24 26 25 26 26 24 24 24 24 22 29 37 41 45 40 32 29 27 22 19 21 20 18 20 20 19 19 18 19 18 18 18 19 18
38 36 38 35 32 30 25 23 21 23 25 25 27 26 24 24 24 23 26 30 36 43 25 27 30 28 25 21 18 19 19 20 20 21 19 19 19 19 19 20 20 20 20
39 38 38 38 35 32 29 25 22 21 23 24 27 27 27 24 23 24 27 33 41 33 33 26 22 23 23 22 21 24 23 21 20 20 20 19 19 20 20 20 21 22 21
41 39 38 37 37 34 31 27 24 23 23 24 28 28 28 25 26 25 19 20 26 31 32 28 28 27 26 21 22 23 24 23 21 20 20 20 20 21 22 22 22 22 21
45 40 39 37 38 35 34 30 27 25 23 25 29 27 32 26 29 24 17 18 30 31 30 30 27 26 25 23 22 24 24 24 22 22 22 21 22 22 23 22 22 22 21
47 41 40 38 39 37 35 33 30 27 25 26 28 31 34 31 28 27 23 21 26 33 36 30 31 30 29 26 25 24 26 25 24 24 25 24 25 24 24 23 23 23 22
52 43 40 42 42 40 37 35 32 30 28 28 30 32 33 33 27 28 24 23 22 20 23 30 30 30 33 29 28 25 25 27 27 27 27 27 26 25 25 24 23 23 23
51 48 50 56 39 32 40 39 35 31 30 31 32 34 33 33 35 31 26 25 29 25 23 27 26 29 35 33 34 28 27 29 29 28 29 28 28 27 26 25 25 25 25
53 50 47 49 41 40 54 41 37 33 33 34 33 33 35 32 33 30 33 27 28 29 25 25 31 32 33 39 34 31 29 31 29 30 31 30 28 28 27 27 27 26 26
48 47 45 44 46 43 48 60 38 35 34 35 32 32 30 33 34 31 32 31 29 27 28 32 35 41 40 44 43 37 31 32 32 33 32 31 30 29 29 30 28 27 28
41 44 42 37 29 47 60 39 41 34 36 33 30 29 34 32 32 33 32 30 31 30 31 32 30 41 41 43 38 38 31 34 35 34 34 32 32 31 31 31 29 29 29
45 48 46 39 29 33 39 39 36 34 34 32 29 31 30 32 32 31 33 32 32 34 31 29 32 29 36 42 37 38 38 37 37 35 34 33 33 33 33 31 30 31 31
42 46 42 46 50 35 29 37 36 34 33 31 30 31 29 33 35 32 34 34 35 32 33 33 32 32 35 45 40 44 33 37 40 37 35 34 33 34 33 31 30 31 31
40 39 39 48 46 29 31 33 35 33 32 29 28 29 32 34 35 34 34 35 36 35 35 37 32 32 29 49 47 37 37 39 40 38 36 32 34 34 32 30 29 30 30
36 37 44 43 42 33 35 36 34 31 29 29 29 25 28 31 33 35 35 39 46 43 40 36 33 31 31 41 35 35 41 43 35 39 33 34 32 31 31 31 30 31 30
36 39 34 35 40 34 37 36 32 30 25 23 26 28 28 32 37 36 37 40 42 39 38 35 34 31 31 29 28 38 43 37 40 37 32 33 33 33 31 29 35 36 33
34 39 34 37 34 34 34 30 30 27 25 24 22 26 26 29 32 38 43 43 39 35 32 33 32 31 33 31 38 43 39 39 38 33 34 35 34 33 31 36 38 35 36
26 26 26 34 35 33 31 30 28 26 25 24 23 19 23 25 22 29 26 32 36 37 37 33 38 39 33 32 36 37 37 35 34 35 36 38 37 37 43 48 45 43 41
27 31 35 41 43 39 31 30 29 26 23 22 21 21 22 27 29 25 30 25 22 29 32 31 42 36 31 32 34 39 38 40 38 44 40 46 45 42 44 45 49 49 37
38 45 47 42 47 37 33 30 29 26 24 21 23 20 21 16 19 26 24 24 19 26 25 30 38 31 34 31 33 38 34 43 43 39 40 47 46 52 46 43 35 32 35
28 33 43 41 37 34 33 31 30 26 22 20 23 21 20 17 11 21 22 19 21 23 22 28 31 28 30 36 35 33 35 41 47 43 48 44 42 37 33 30 30 31 32
31 40 39 38 33 34 32 30 29 25 22 21 22 20 19 16 12 10 15 17 20 16 25 34 31 27 25 29 32 34 31 32 33 33 33 35 35 33 31 33 33 36 38
32 35 36 32 30 27 25 26 27 23 20 21 23 23 22 20 14 15 13 14 16 18 28 28 28 34 29 39 33 34 29 35 36 38 33 34 36 36 37 39 40 41 40
Wind_Direction
253 258 262 270 270 268 267 263 259 254 252 250 249 249 250 254 261 259 254 249 214 220 219 213 209 211 215 217 225 236 243 242 233 228 228 229 227 227 220 210 204 200 196
249 255 259 263 265 265 265 263 261 255 250 250 249 251 250 250 258 257 260 243 219 223 215 215 211 212 218 220 230 241 239 242 234 229 227 228 226 221 218 210 205 201 198
246 251 255 260 260 257 259 261 264 260 251 251 253 252 252 252 257 259 262 238 219 225 220 208 209 211 218 224 238 243 241 241 235 233 230 228 228 221 218 210 207 204 203
241 245 250 252 256 253 252 259 266 266 258 252 252 256 257 257 257 254 255 236 224 224 225 191 198 206 213 222 232 237 244 240 232 233 231 232 228 223 216 213 208 210 212
238 246 248 248 250 249 248 256 266 269 261 253 251 252 251 257 258 247 263 231 217 217 217 197 205 211 215 219 232 233 239 238 233 236 233 232 230 223 215 212 208 211 214
239 247 247 245 243 245 246 251 262 269 262 253 250 249 248 249 252 253 264 231 204 217 203 204 216 225 220 230 238 230 240 238 235 239 236 234 229 223 216 214 213 214 217
238 246 244 244 238 242 245 249 254 264 265 255 250 247 242 243 244 246 251 238 216 225 203 206 217 227 234 236 241 237 236 232 233 234 236 230 224 221 218 217 217 218 220
238 246 244 244 237 239 243 246 253 261 269 259 255 249 246 245 239 245 240 214 226 209 207 209 217 226 231 239 242 243 234 231 230 229 231 225 221 220 221 220 222 221 223
238 241 242 242 235 235 240 245 248 255 267 265 259 253 240 243 242 240 245 234 245 216 209 223 225 224 231 238 241 243 237 230 230 229 226 222 218 217 221 221 222 224 225
235 235 240 246 235 231 236 241 246 251 260 267 261 254 244 245 240 245 241 225 237 236 234 223 228 228 236 238 245 242 239 233 231 229 227 221 219 218 220 223 223 226 229
234 234 243 237 224 228 241 238 241 251 260 267 264 254 243 244 238 237 243 250 237 241 244 242 245 251 244 242 241 242 237 235 232 229 227 225 223 221 222 220 223 225 229
233 231 235 250 247 247 250 248 244 246 255 264 264 254 240 244 244 242 241 237 238 245 242 244 250 243 243 244 246 241 236 235 234 231 226 224 226 226 222 220 224 226 230
233 231 239 245 245 246 230 242 231 242 252 261 264 253 241 241 247 244 248 244 238 242 245 250 262 246 254 246 245 235 234 232 232 230 227 224 224 226 224 223 222 228 233
228 228 233 243 245 241 227 206 229 240 251 260 259 245 241 240 240 239 237 242 243 242 246 251 246 250 257 239 226 227 224 234 228 228 227 226 223 222 225 228 227 231 236
225 225 230 229 204 188 197 223 234 241 251 259 251 247 241 244 237 241 239 240 248 248 250 258 251 260 232 232 237 243 239 227 232 227 226 229 230 227 227 229 232 236 240
229 226 229 225 244 252 220 232 238 244 252 254 247 238 239 240 242 243 241 243 242 248 254 257 260 248 262 244 251 245 219 230 231 228 225 226 232 234 234 234 238 243 246
225 226 224 225 241 232 232 235 236 246 252 248 244 241 240 239 241 243 242 242 241 246 260 264 261 257 248 235 233 227 219 228 227 231 228 229 233 236 239 241 243 247 249
227 224 226 236 242 223 234 231 238 248 251 243 239 241 242 240 246 248 249 245 246 245 254 256 257 249 237 228 231 244 217 227 222 233 225 232 232 235 239 240 243 244 247
220 225 226 243 227 233 225 230 237 245 241 243 241 247 256 243 253 252 248 242 251 248 259 251 251 233 226 236 231 215 217 224 229 228 225 229 231 235 239 246 248 246 250
215 215 215 230 222 243 230 232 240 238 238 245 246 251 255 254 253 254 256 250 253 239 240 240 229 227 243 241 224 221 220 223 226 228 230 234 232 240 252 244 242 247 249
216 217 223 216 231 240 233 236 239 236 235 244 253 248 239 256 263 261 253 239 242 241 237 240 220 229 228 235 212 222 220 228 230 228 237 233 228 232 237 246 249 248 255
242 236 227 223 229 240 229 229 232 232 237 243 243 239 247 262 264 250 237 235 224 234 222 229 222 235 229 226 224 214 229 225 227 234 236 239 238 239 248 253 256 256 259
240 235 228 222 221 230 227 227 228 229 232 241 239 236 247 261 246 234 233 211 225 222 218 214 224 232 221 221 223 226 228 236 239 221 233 243 256 254 256 257 254 246 247
208 203 227 203 223 222 224 225 224 224 228 236 245 233 243 257 269 231 247 237 223 217 230 226 223 229 228 224 233 235 238 239 234 247 244 251 255 251 248 246 252 256 259
225 232 215 202 214 220 222 223 222 222 224 231 231 230 237 235 264 266 237 214 221 223 239 225 228 228 218 228 228 232 237 243 242 244 244 246 244 239 250 252 253 256 257
199 191 206 196 207 217 219 219 222 218 222 216 220 228 233 245 244 251 244 224 219 216 231 235 244 236 228 230 229 240 241 245 247 242 240 240 236 244 255 255 259 258 257
Height
3125 3125 3126 3126 3127 3127 3127 3127 3127 3128 3128 3129 3130 3130 3131 3131 3130 3130 3131 3130 3132 3135 3138 3138 3145 3149 3152 3155 3158 3160 3161 3163 3164 3166 3167 3168 3169 3171 3172 3174 3175 3177 3179
3119 3120 3121 3122 3122 3123 3123 3123 3123 3123 3124 3124 3124 3125 3126 3126 3126 3125 3127 3127 3129 3130 3135 3138 3141 3144 3148 3152 3155 3156 3158 3159 3161 3163 3164 3165 3166 3168 3170 3172 3174 3176 3178
3113 3114 3115 3116 3117 3118 3119 3119 3118 3118 3118 3119 3119 3120 3120 3120 3120 3120 3120 3122 3123 3124 3129 3128 3136 3139 3143 3148 3150 3153 3154 3156 3158 3160 3161 3162 3164 3166 3168 3169 3172 3174 3176
3106 3107 3108 3110 3112 3112 3114 3114 3113 3113 3113 3114 3115 3115 3115 3115 3113 3114 3114 3114 3119 3120 3119 3102 3126 3133 3139 3143 3146 3149 3150 3153 3154 3156 3158 3160 3161 3163 3165 3168 3170 3173 3175
3098 3099 3101 3103 3105 3106 3108 3109 3109 3108 3108 3108 3109 3110 3109 3109 3108 3107 3108 3106 3108 3116 3114 3116 3126 3130 3134 3139 3142 3144 3147 3149 3151 3153 3155 3156 3158 3160 3162 3165 3166 3169 3171
3089 3091 3092 3095 3098 3100 3102 3103 3104 3103 3103 3103 3103 3104 3105 3104 3103 3103 3101 3097 3104 3109 3111 3116 3121 3125 3130 3135 3138 3141 3142 3145 3147 3150 3152 3153 3155 3158 3160 3162 3164 3166 3168
3081 3083 3085 3087 3090 3094 3096 3097 3098 3098 3098 3098 3098 3098 3099 3099 3099 3099 3098 3098 3101 3103 3105 3112 3117 3123 3126 3130 3133 3136 3137 3140 3142 3145 3148 3149 3151 3154 3156 3158 3160 3163 3165
3072 3075 3077 3080 3083 3086 3089 3091 3092 3093 3093 3092 3093 3094 3094 3095 3094 3095 3095 3094 3097 3098 3103 3109 3114 3118 3122 3124 3128 3131 3132 3135 3137 3139 3143 3145 3147 3150 3153 3155 3158 3159 3161
3062 3066 3069 3072 3074 3078 3081 3084 3086 3087 3088 3088 3088 3088 3088 3088 3090 3091 3092 3093 3094 3095 3100 3105 3110 3114 3117 3120 3122 3125 3127 3130 3132 3135 3137 3140 3142 3145 3148 3151 3153 3155 3157
3051 3057 3061 3062 3064 3068 3073 3076 3079 3081 3081 3082 3082 3082 3083 3083 3085 3087 3089 3090 3091 3094 3096 3100 3103 3106 3111 3114 3116 3120 3123 3125 3127 3130 3132 3135 3138 3140 3143 3147 3149 3151 3153
3043 3048 3050 3046 3033 3057 3065 3068 3071 3073 3074 3076 3076 3076 3077 3077 3080 3082 3084 3086 3087 3091 3093 3096 3097 3101 3104 3108 3111 3114 3117 3120 3122 3124 3127 3131 3133 3135 3139 3141 3144 3146 3148
3031 3038 3041 3040 3043 3049 3057 3062 3065 3065 3067 3069 3069 3068 3070 3071 3074 3077 3078 3081 3083 3086 3087 3090 3092 3095 3098 3101 3104 3107 3111 3114 3116 3119 3122 3125 3129 3131 3133 3135 3138 3140 3143
3022 3029 3033 3035 3037 3040 3047 3052 3059 3057 3060 3061 3061 3060 3063 3065 3068 3070 3072 3074 3077 3080 3082 3084 3085 3088 3090 3093 3096 3101 3104 3106 3110 3113 3116 3119 3122 3125 3128 3129 3132 3135 3138
3014 3020 3026 3029 3027 3026 3036 3043 3049 3050 3052 3053 3052 3053 3055 3058 3061 3063 3065 3068 3070 3072 3075 3078 3079 3080 3079 3082 3087 3090 3096 3101 3103 3106 3110 3113 3115 3118 3122 3125 3127 3130 3132
3005 3010 3016 3020 3020 3016 3028 3037 3041 3043 3044 3045 3046 3047 3048 3051 3054 3056 3058 3060 3063 3063 3067 3068 3070 3071 3073 3076 3080 3084 3087 3094 3097 3099 3103 3107 3111 3113 3116 3119 3121 3124 3126
2997 3002 3008 3012 3011 3011 3020 3026 3034 3035 3036 3037 3039 3040 3041 3045 3047 3049 3051 3053 3054 3057 3058 3060 3063 3065 3067 3068 3072 3075 3082 3087 3090 3092 3096 3100 3104 3108 3111 3113 3115 3118 3120
2991 2996 3000 3004 3007 3007 3014 3020 3025 3027 3029 3029 3032 3033 3035 3037 3040 3042 3044 3046 3047 3049 3050 3050 3054 3056 3057 3060 3062 3066 3073 3078 3081 3085 3089 3093 3098 3102 3105 3107 3108 3111 3113
2984 2989 2993 2997 3000 3006 3009 3013 3017 3019 3020 3021 3024 3025 3027 3028 3031 3033 3035 3037 3039 3040 3043 3043 3046 3046 3048 3052 3057 3060 3065 3066 3075 3079 3083 3088 3091 3095 3098 3099 3101 3103 3105
2978 2984 2989 2994 2997 2997 3003 3007 3009 3011 3012 3014 3017 3018 3018 3020 3022 3023 3024 3025 3029 3030 3032 3034 3037 3039 3043 3047 3051 3051 3055 3063 3070 3073 3077 3081 3084 3087 3090 3091 3094 3095 3096
2972 2978 2981 2987 2990 2992 2996 2998 3000 3002 3005 3007 3008 3009 3009 3010 3011 3013 3013 3014 3017 3020 3023 3026 3029 3033 3036 3039 3042 3046 3052 3057 3062 3066 3070 3074 3077 3080 3081 3083 3083 3085 3087
2965 2969 2975 2979 2983 2987 2989 2991 2994 2996 2998 2999 3000 3001 3003 3004 3004 3003 3001 3002 3006 3010 3013 3017 3021 3024 3029 3031 3034 3040 3045 3051 3055 3059 3063 3065 3069 3069 3071 3073 3074 3076 3077
2957 2962 2966 2971 2976 2979 2981 2984 2987 2989 2991 2992 2993 2996 2997 2996 2994 2993 2994 2995 2999 3002 3004 3008 3014 3018 3021 3025 3029 3034 3039 3043 3046 3051 3054 3055 3058 3060 3062 3063 3064 3066 3067
2945 2948 2953 2960 2967 2971 2974 2977 2979 2981 2984 2985 2987 2988 2990 2989 2987 2986 2988 2990 2992 2995 2998 3002 3008 3011 3015 3019 3024 3029 3032 3037 3040 3043 3044 3047 3049 3050 3051 3052 3053 3054 3057
2935 2932 2941 2951 2958 2963 2966 2970 2972 2975 2976 2978 2981 2982 2984 2984 2982 2982 2982 2984 2986 2989 2993 2998 3001 3004 3009 3014 3018 3022 3026 3029 3031 3033 3035 3036 3039 3040 3041 3042 3043 3045 3047
2932 2933 2939 2942 2950 2955 2959 2963 2966 2967 2970 2972 2974 2977 2979 2979 2979 2979 2979 2979 2981 2983 2989 2993 2995 3000 3004 3009 3013 3016 3017 3020 3022 3024 3025 3028 3029 3031 3032 3033 3034 3036 3037
2929 2931 2934 2938 2944 2950 2954 2957 2960 2961 2964 2966 2968 2970 2973 2974 2975 2976 2977 2978 2979 2981 2985 2987 2991 2995 2997 3002 3005 3007 3009 3012 3014 3014 3017 3019 3021 3023 3023 3024 3025 3026 3026